Probability
0 0 0 0 0 0 0 0 0 0 0 0 0 0 0 0 0 3 0 0 0 0 0 0 3 3 0 0 0 0 0 3 3 0 0 3 3 3 3 3 3 3 3 3
0 0 0 0 0 0 0 0 0 0 0 0 0 0 0 0 0 3 0 0 0 0 0 0 0 3 0 0 0 0 0 3 3 3 0 0 0 0 0 0 3 3 3 3
0 0 0 0 0 0 0 0 0 0 0 0 0 0 0 0 3 3 0 0 0 0 0 0 0 0 0 0 0 0 0 0 0 0 0 0 0 0 0 3 0 0 3 3
0 0 0 0 0 0 0 0 0 0 0 0 0 0 0 0 3 3 0 0 0 0 0 0 0 0 0 0 0 0 0 0 0 0 0 0 0 0 0 0 0 0 0 0
0 0 0 0 0 0 0 0 0 0 0 0 0 0 0 0 3 0 0 0 0 0 0 0 0 0 0 0 0 0 0 0 0 0 0 3 0 0 0 0 0 3 0 0
0 0 0 0 0 0 0 0 0 0 0 0 0 0 0 0 0 0 0 0 0 0 0 0 0 0 0 0 0 0 0 0 0 0 0 0 0 6 3 0 0 3 0 0
0 0 0 0 0 0 0 0 0 0 0 0 0 0 0 0 0 0 0 0 0 0 0 0 0 0 0 0 0 0 0 0 0 0 0 0 0 3 6 6 10 0 0 0
0 0 0 0 0 0 0 0 0 0 0 0 0 0 0 0 0 0 0 0 0 0 0 0 0 0 0 0 0 0 0 0 0 0 0 0 0 0 0 0 3 3 0 0
0 0 0 0 0 0 0 0 0 0 0 0 0 0 0 0 0 0 0 0 0 0 0 0 0 0 0 0 0 0 0 0 0 0 0 0 0 3 3 0 0 0 0 0
0 0 0 0 0 0 0 0 0 0 0 0 0 0 0 0 0 0 0 0 0 0 0 0 0 0 0 0 0 0 0 0 0 0 0 0 0 0 3 0 0 0 0 0
0 0 0 0 0 0 0 0 0 0 0 0 0 0 0 0 0 0 0 0 0 0 0 0 0 0 0 0 0 0 0 0 0 0 0 0 0 0 0 0 0 0 0 0
0 0 0 0 0 0 0 0 0 0 0 0 0 0 0 0 0 0 0 0 0 0 0 0 0 0 0 0 0 0 0 0 0 0 0 0 0 0 0 0 0 0 0 0
0 0 0 0 0 0 0 0 0 0 0 0 0 0 0 0 0 0 0 0 0 0 0 0 0 0 0 0 0 0 0 0 0 0 0 0 0 0 0 0 0 0 0 0
0 0 0 0 0 0 0 0 0 0 0 0 0 0 0 0 0 0 0 0 0 0 0 0 0 0 0 0 0 0 0 0 0 0 0 0 0 0 0 0 0 0 0 0
0 0 0 0 0 0 0 0 0 0 0 0 0 0 0 0 0 0 0 0 0 0 0 0 0 0 0 0 0 0 0 0 0 0 0 0 0 0 0 0 0 0 0 0
0 0 0 0 0 0 0 0 0 0 0 0 0 0 0 0 0 0 0 0 0 0 0 0 0 0 0 0 0 0 0 0 0 0 0 0 0 0 0 0 0 0 0 0
0 0 0 0 0 0 0 0 0 0 0 0 0 0 0 0 0 0 0 0 0 0 0 0 0 0 0 0 0 0 0 0 0 0 0 0 0 0 0 0 0 0 0 0
0 0 0 0 0 0 0 0 0 0 0 0 0 0 0 0 0 0 0 0 0 0 0 0 0 0 0 0 0 0 0 0 0 0 0 0 0 0 0 0 0 0 0 0
0 0 0 0 0 0 0 0 0 0 0 0 0 0 0 0 0 0 0 0 0 0 0 0 0 0 0 0 0 0 0 0 0 0 0 0 0 0 0 0 0 0 0 0
0 0 0 0 0 0 0 0 0 0 0 0 0 0 0 0 0 0 0 0 0 0 0 0 0 0 0 0 0 0 0 0 0 0 0 0 0 0 0 0 0 0 0 0
0 0 0 0 0 0 0 0 0 0 0 0 0 0 0 0 0 0 0 0 0 0 0 0 0 0 0 0 0 0 0 0 0 0 0 0 0 0 0 0 0 0 0 0
0 0 0 0 0 0 0 0 0 0 0 0 0 0 0 0 0 0 0 0 0 0 0 0 0 0 0 0 0 0 0 0 0 0 0 0 0 0 0 0 0 0 0 0
0 0 0 0 0 0 0 0 0 0 0 0 0 0 0 0 0 0 0 0 0 0 0 0 0 0 0 0 0 0 0 0 0 0 0 0 0 0 0 0 0 0 0 0
0 0 0 0 0 0 0 0 0 0 0 0 0 0 0 0 0 0 0 0 0 0 0 0 0 0 0 0 0 0 0 0 0 0 0 0 0 0 0 0 0 0 0 0
0 0 0 0 0 0 0 0 0 0 0 0 0 0 0 0 0 0 0 0 0 0 0 0 0 0 0 0 0 0 0 0 0 0 0 0 0 0 0 0 0 0 0 0
0 0 0 0 0 0 0 0 0 0 0 0 0 0 0 0 0 0 0 0 0 0 0 0 0 0 0 0 0 0 0 0 0 0 0 0 0 0 0 0 0 0 0 0
0 0 0 0 0 0 0 0 0 0 0 0 0 0 0 0 0 0 0 0 0 0 0 0 0 0 0 0 0 0 0 0 0 0 0 0 0 0 0 0 0 0 0 0
Height
5788 5790 5791 5791 5793 5794 5795 5796 5798 5799 5800 5799 5799 5799 5799 5799 5799 5799 5798 5797 5797 5796 5795 5794 5793 5792 5792 5791 5789 5788 5788 5787 5786 5784 5782 5781 5779 5777 5775 5773 5771 5770 5768 5767
5783 5784 5785 5786 5787 5789 5790 5791 5792 5793 5794 5794 5794 5793 5793 5793 5793 5793 5793 5792 5791 5790 5789 5788 5787 5786 5786 5785 5784 5783 5782 5781 5780 5778 5777 5775 5773 5771 5769 5767 5766 5764 5762 5761
5777 5778 5779 5780 5782 5783 5784 5785 5786 5787 5789 5788 5788 5788 5788 5788 5787 5787 5787 5786 5785 5784 5783 5782 5781 5780 5780 5779 5778 5777 5776 5775 5774 5772 5771 5769 5767 5765 5763 5761 5760 5758 5756 5755
5770 5772 5772 5777 5777 5777 5777 5778 5780 5780 5781 5782 5782 5782 5782 5782 5782 5781 5781 5780 5779 5778 5777 5776 5775 5774 5774 5773 5772 5771 5770 5769 5768 5766 5765 5763 5761 5759 5757 5755 5753 5751 5750 5748
5763 5764 5765 5769 5770 5770 5771 5772 5774 5774 5775 5776 5776 5776 5776 5776 5775 5775 5775 5774 5773 5772 5771 5770 5769 5768 5768 5766 5765 5764 5764 5762 5761 5759 5757 5756 5754 5752 5750 5748 5746 5744 5742 5741
5757 5757 5759 5763 5764 5763 5765 5765 5767 5767 5768 5769 5770 5770 5770 5769 5769 5769 5768 5767 5766 5766 5765 5764 5763 5762 5761 5760 5759 5758 5757 5756 5754 5753 5751 5749 5747 5745 5743 5741 5739 5737 5735 5733
5749 5750 5752 5755 5756 5757 5759 5760 5760 5760 5761 5762 5762 5763 5763 5762 5762 5762 5761 5761 5760 5759 5758 5758 5757 5756 5755 5754 5753 5751 5750 5749 5747 5745 5744 5742 5740 5738 5736 5734 5731 5729 5727 5725
5742 5743 5747 5748 5748 5750 5751 5751 5752 5753 5754 5755 5755 5755 5755 5755 5755 5755 5755 5754 5753 5752 5752 5751 5750 5749 5748 5747 5746 5744 5743 5741 5740 5738 5736 5734 5732 5730 5728 5725 5723 5721 5719 5717
5734 5737 5738 5738 5740 5741 5742 5743 5744 5745 5746 5747 5748 5748 5748 5748 5748 5748 5747 5747 5746 5745 5745 5744 5743 5742 5741 5740 5738 5737 5735 5734 5732 5731 5728 5726 5724 5721 5719 5716 5714 5712 5710 5708
5725 5727 5729 5730 5731 5732 5733 5735 5736 5737 5738 5739 5740 5740 5741 5741 5740 5740 5740 5739 5738 5738 5737 5736 5735 5735 5734 5732 5731 5729 5728 5726 5724 5722 5720 5718 5715 5713 5710 5708 5705 5703 5701 5699
5715 5719 5720 5721 5722 5723 5725 5726 5727 5728 5729 5730 5732 5732 5732 5732 5732 5732 5731 5731 5730 5730 5729 5728 5727 5726 5725 5724 5722 5721 5719 5717 5716 5714 5711 5709 5706 5703 5701 5699 5696 5693 5691 5689
5706 5709 5710 5712 5713 5714 5716 5717 5718 5719 5720 5721 5722 5723 5723 5724 5723 5723 5723 5723 5722 5721 5721 5720 5719 5718 5717 5715 5714 5712 5710 5708 5706 5704 5702 5700 5697 5695 5692 5690 5687 5684 5682 5680
5696 5698 5699 5701 5703 5705 5706 5707 5709 5709 5711 5712 5713 5713 5714 5715 5715 5715 5714 5714 5713 5713 5712 5711 5710 5709 5708 5706 5704 5702 5700 5698 5696 5694 5692 5690 5687 5685 5683 5681 5678 5675 5673 5670
5685 5687 5688 5691 5693 5695 5696 5697 5699 5700 5701 5702 5703 5704 5704 5705 5705 5705 5705 5705 5704 5704 5703 5702 5701 5700 5698 5696 5695 5692 5690 5688 5686 5684 5682 5679 5677 5675 5673 5671 5669 5666 5663 5661
5675 5676 5678 5680 5683 5685 5686 5687 5689 5690 5692 5693 5693 5694 5695 5695 5696 5696 5696 5695 5695 5694 5693 5692 5691 5690 5688 5686 5684 5682 5680 5678 5676 5673 5671 5669 5667 5665 5662 5660 5658 5656 5653 5651
5665 5666 5668 5670 5672 5674 5676 5677 5679 5681 5682 5683 5684 5685 5685 5685 5686 5686 5686 5685 5685 5684 5684 5683 5681 5680 5678 5676 5674 5672 5669 5667 5665 5663 5660 5658 5656 5654 5652 5649 5647 5645 5643 5641
5655 5657 5658 5660 5662 5664 5666 5668 5669 5671 5672 5673 5674 5674 5675 5676 5676 5676 5676 5675 5675 5674 5673 5672 5671 5669 5667 5665 5663 5661 5659 5657 5654 5652 5650 5648 5646 5644 5642 5639 5637 5635 5633 5630
5645 5647 5648 5650 5652 5654 5656 5657 5659 5660 5661 5663 5664 5664 5665 5665 5666 5666 5665 5665 5664 5664 5663 5661 5660 5658 5656 5654 5652 5650 5648 5646 5644 5641 5639 5637 5635 5633 5631 5629 5627 5625 5622 5620
5636 5638 5639 5641 5642 5644 5646 5647 5649 5650 5651 5652 5654 5654 5655 5655 5655 5655 5655 5654 5654 5653 5652 5651 5649 5647 5645 5643 5641 5639 5637 5635 5633 5631 5629 5626 5624 5622 5620 5619 5616 5614 5612 5610
5627 5629 5630 5631 5633 5635 5636 5638 5639 5640 5641 5642 5643 5644 5645 5645 5645 5644 5644 5644 5643 5642 5641 5640 5638 5636 5634 5632 5630 5629 5627 5625 5623 5621 5618 5616 5614 5612 5610 5608 5606 5604 5602 5599
5618 5620 5621 5623 5624 5626 5627 5628 5629 5631 5632 5633 5633 5634 5634 5634 5634 5634 5634 5633 5633 5631 5630 5629 5627 5626 5624 5622 5620 5618 5616 5615 5612 5611 5608 5606 5604 5602 5600 5598 5595 5593 5591 5589
5610 5611 5612 5614 5615 5616 5618 5619 5620 5621 5622 5623 5623 5624 5624 5624 5624 5624 5623 5623 5622 5621 5620 5618 5617 5615 5613 5612 5610 5608 5607 5605 5603 5601 5599 5597 5594 5592 5590 5587 5585 5583 5580 5578
5601 5602 5603 5605 5606 5607 5608 5609 5610 5611 5612 5613 5613 5614 5614 5614 5614 5613 5613 5612 5611 5610 5609 5608 5607 5605 5604 5602 5601 5599 5597 5595 5593 5591 5589 5587 5584 5582 5579 5577 5575 5572 5570 5568
5592 5593 5595 5596 5597 5598 5599 5600 5601 5602 5602 5603 5604 5604 5604 5604 5604 5603 5603 5602 5601 5600 5599 5598 5597 5596 5594 5593 5591 5589 5587 5585 5583 5581 5579 5577 5574 5572 5569 5567 5565 5563 5560 5558
5584 5585 5586 5587 5588 5589 5590 5591 5592 5593 5593 5594 5594 5594 5594 5594 5594 5593 5593 5592 5591 5590 5590 5589 5588 5587 5585 5584 5582 5580 5578 5576 5574 5572 5570 5567 5565 5562 5560 5558 5556 5553 5551 5549
5577 5578 5579 5580 5580 5581 5582 5583 5584 5584 5585 5585 5585 5585 5585 5584 5584 5584 5583 5583 5582 5581 5580 5579 5579 5578 5576 5575 5573 5571 5569 5567 5565 5563 5561 5558 5556 5554 5551 5549 5546 5544 5542 5539
5569 5570 5571 5572 5572 5573 5574 5575 5575 5576 5576 5576 5576 5576 5575 5575 5575 5574 5574 5573 5573 5572 5571 5570 5569 5568 5567 5566 5564 5562 5561 5559 5557 5555 5552 5550 5548 5545 5543 5540 5538 5535 5533 5530
Wind_Speed
21 20 21 21 21 21 21 22 22 22 22 22 23 22 22 21 20 20 20 20 20 21 21 21 22 22 22 22 23 22 22 23 23 23 23 23 23 23 23 23 23 23 23 24
22 23 23 24 23 22 22 22 23 23 22 23 23 23 23 23 22 22 21 21 21 22 22 22 22 22 23 22 23 23 23 23 24 24 23 23 23 23 23 24 24 24 24 24
24 23 24 25 22 23 23 23 24 24 23 23 24 22 22 22 23 23 22 22 22 22 22 22 22 22 23 23 23 23 23 23 23 24 24 24 24 24 24 24 24 25 25 25
26 26 27 23 22 24 24 24 24 24 24 24 23 23 22 23 23 23 22 22 22 22 22 22 22 22 23 23 24 24 24 24 24 25 25 25 26 25 25 25 25 25 25 25
28 28 28 25 24 24 25 25 24 25 25 25 24 23 23 24 23 22 22 22 23 23 23 23 23 23 23 23 24 24 25 25 25 25 26 26 25 25 25 26 26 27 27 26
29 29 29 26 26 26 25 25 25 26 26 25 25 25 24 24 23 23 23 23 23 23 23 23 23 23 23 24 25 25 25 26 26 27 27 26 27 26 27 27 27 27 27 27
29 30 30 28 27 27 27 26 26 25 26 26 26 26 25 25 24 24 24 24 24 24 24 24 24 24 24 25 25 26 26 27 27 28 28 28 28 28 28 28 29 29 28 28
29 30 29 28 28 29 28 28 27 26 26 26 26 26 26 26 25 25 25 25 25 24 24 24 24 25 25 25 26 27 27 27 28 29 29 29 30 30 30 31 31 30 29 29
30 30 28 28 29 29 29 29 29 29 28 27 27 27 27 28 27 26 26 26 26 25 25 26 26 26 26 26 27 28 28 28 28 29 30 31 31 31 32 32 32 31 30 29
33 32 30 29 30 30 31 30 30 30 29 28 28 28 28 28 28 28 28 27 26 26 27 27 27 27 27 28 28 29 29 30 30 31 31 32 32 33 33 33 33 32 31 31
35 33 32 32 32 32 32 32 31 31 31 30 30 29 29 29 29 29 28 28 28 28 28 28 28 28 28 29 29 30 31 31 32 32 33 33 34 34 33 33 33 33 32 31
36 35 35 34 34 34 33 33 33 32 32 32 31 31 30 30 29 29 29 28 28 29 29 29 29 29 29 30 31 32 32 33 33 34 34 34 34 34 33 34 33 33 32 32
36 35 36 35 35 34 34 34 34 34 33 33 33 32 31 31 30 30 30 29 29 29 30 30 30 30 31 31 32 33 34 34 35 35 35 35 35 35 34 34 34 33 33 33
36 36 36 36 36 35 35 34 34 34 33 34 33 32 31 31 31 31 31 31 31 31 31 31 32 32 32 33 33 34 35 36 36 36 36 36 36 36 35 35 34 34 34 34
35 35 35 35 36 35 35 34 34 33 33 33 33 32 32 32 32 32 32 33 33 33 32 32 32 32 33 34 35 35 36 36 36 36 36 36 36 35 35 34 34 34 35 34
34 35 34 34 34 33 33 33 34 34 33 33 33 33 33 33 33 33 33 33 34 33 34 34 34 34 35 35 35 36 36 37 37 36 36 36 35 35 35 34 34 34 34 34
33 34 34 34 33 32 32 33 34 34 34 33 33 32 33 33 34 34 34 34 34 35 35 35 36 36 36 36 36 36 37 36 36 36 36 36 35 35 35 34 34 34 33 33
32 32 33 33 33 33 33 33 33 33 33 33 33 32 33 34 34 35 35 35 35 36 36 36 36 37 37 36 37 37 36 35 35 35 35 35 35 35 35 35 35 34 34 34
31 32 32 32 32 33 33 33 33 33 33 33 33 33 33 34 35 35 35 35 36 36 36 36 36 36 36 36 37 36 35 35 35 34 34 34 34 34 34 34 35 35 34 34
31 31 31 31 32 32 32 33 32 33 33 33 33 33 33 34 34 35 35 35 35 36 36 36 36 35 36 36 36 35 35 34 34 34 33 33 33 33 33 34 34 34 34 34
29 30 30 30 31 31 32 32 33 32 32 32 33 33 33 34 34 34 34 35 35 36 36 35 35 35 35 35 34 34 34 34 34 33 33 33 33 33 33 33 33 33 33 33
29 30 30 30 30 30 30 31 31 31 32 32 32 33 33 34 34 34 34 34 35 35 34 34 34 34 33 33 32 32 33 33 33 33 33 33 32 32 32 32 33 33 33 33
29 29 29 29 28 28 29 30 30 31 31 32 32 32 32 33 33 33 33 33 33 33 33 32 32 32 31 31 32 32 32 32 33 33 32 32 32 32 32 32 32 33 33 33
28 28 27 27 27 28 28 29 30 30 31 31 31 31 32 32 32 32 32 32 32 32 31 31 30 30 30 30 30 31 31 31 31 31 31 31 31 32 32 32 32 32 32 31
26 26 27 27 27 27 27 28 28 29 29 30 30 31 30 30 31 31 31 31 31 30 30 29 29 29 30 29 29 29 30 30 30 31 31 30 30 30 30 30 30 30 31 31
26 27 27 27 26 26 27 27 28 28 29 29 29 29 29 30 30 30 30 30 29 29 29 29 29 29 29 29 29 29 29 29 29 29 29 29 28 29 29 29 29 30 30 30
25 26 27 27 27 27 27 27 28 28 28 28 28 29 29 29 29 29 29 28 28 28 28 28 28 28 28 28 28 28 29 29 29 29 28 28 28 28 28 28 29 29 29 29
Wind_Direction
251 250 253 258 257 256 254 255 255 254 256 261 266 272 275 277 278 278 279 281 283 284 286 285 284 285 286 288 290 291 292 293 295 297 298 297 298 299 299 297 297 295 293 290
253 253 255 257 258 258 259 259 258 258 262 265 267 272 275 276 277 277 279 280 282 284 285 284 285 285 285 287 289 289 290 291 294 296 299 298 299 299 299 298 296 294 293 291
255 256 256 255 259 262 262 260 259 259 262 265 269 274 277 278 278 279 280 281 282 284 284 284 284 284 284 286 287 288 289 290 292 294 297 299 299 297 297 296 295 293 293 291
258 258 258 260 262 264 264 263 261 262 263 267 271 273 275 276 278 279 281 281 282 283 283 283 283 283 284 285 285 286 287 288 290 292 294 296 298 296 295 295 294 293 293 292
258 259 260 261 263 264 265 263 261 262 263 266 270 272 274 276 278 280 282 282 282 282 281 281 281 283 284 284 285 286 287 288 289 290 292 293 296 296 295 295 295 293 292 291
256 259 261 263 264 265 266 266 263 262 263 265 269 271 273 276 278 279 279 280 282 282 281 280 280 281 283 284 286 288 289 289 290 291 292 293 294 295 295 295 294 294 293 291
256 258 261 263 264 264 265 267 265 264 264 264 267 269 272 275 276 278 280 280 281 281 281 281 281 283 284 286 287 287 288 289 290 291 292 293 293 294 295 295 293 293 293 292
257 259 260 262 264 262 264 266 267 266 264 265 267 269 272 273 275 276 279 280 281 281 281 282 282 283 285 286 287 288 288 288 289 290 292 292 293 294 294 294 293 292 292 291
258 259 261 259 260 261 262 264 266 266 266 266 267 269 271 273 275 276 278 279 279 279 280 281 281 281 283 285 286 287 288 288 289 291 292 292 292 294 295 295 295 293 292 291
254 256 257 257 258 259 260 261 264 266 266 266 266 268 271 273 275 276 277 277 277 278 279 280 281 281 282 284 285 286 287 288 290 291 292 292 292 294 294 295 294 294 292 291
254 255 257 257 259 258 258 260 263 264 263 265 266 267 269 271 273 275 275 276 277 278 279 279 280 281 282 283 284 286 288 289 290 291 292 294 294 294 294 293 294 293 292 291
256 255 257 259 259 259 259 260 262 263 262 263 264 265 267 269 272 274 275 275 276 277 278 279 280 281 283 285 285 286 288 289 290 290 291 292 294 294 294 294 293 294 293 292
258 256 256 258 260 261 261 261 261 262 263 262 263 265 266 268 271 272 273 275 275 277 278 279 280 282 284 286 287 287 288 290 290 290 291 291 292 292 293 292 292 293 292 292
258 256 256 257 258 259 261 262 262 263 263 264 264 264 265 267 269 271 273 274 275 277 278 280 282 283 285 287 288 288 289 290 291 290 291 291 292 292 292 291 291 292 292 291
260 258 257 257 258 259 261 262 262 263 263 264 265 265 266 268 270 271 273 274 275 277 278 281 283 285 286 288 289 289 289 290 290 291 291 291 291 292 292 291 290 291 291 290
260 259 258 257 258 259 260 260 261 262 263 264 265 266 267 269 271 272 273 274 275 277 279 281 284 286 287 288 289 289 289 290 290 290 290 290 291 291 292 291 291 291 290 289
260 259 259 258 257 259 260 260 261 262 262 263 265 266 267 269 271 272 274 275 276 277 279 281 283 285 287 288 288 289 289 289 289 289 290 289 290 290 291 292 291 291 290 290
260 258 259 259 259 259 261 262 262 261 262 263 265 266 268 269 271 272 274 275 276 277 279 281 283 285 286 287 288 289 289 289 289 290 290 290 289 289 290 291 291 291 291 290
261 260 259 260 260 260 261 262 262 262 262 264 265 266 268 270 272 273 274 275 277 278 280 281 283 285 286 287 287 288 288 289 290 291 291 291 290 290 290 290 291 292 292 291
262 262 263 263 261 261 262 261 262 263 263 264 266 268 270 272 274 275 275 276 277 279 281 282 283 285 286 286 286 287 288 290 291 291 291 292 291 290 291 291 292 292 292 290
262 262 263 262 260 259 261 262 263 263 264 265 266 268 271 273 274 275 277 278 279 280 281 283 284 285 286 286 287 287 288 289 290 291 292 293 293 292 292 292 292 292 291 290
263 262 261 260 259 258 259 260 261 263 265 266 267 269 272 274 275 276 277 278 279 281 282 284 285 285 285 285 286 287 289 289 290 291 292 293 294 294 293 292 292 291 291 290
264 262 260 260 260 260 260 261 263 265 266 267 269 271 273 275 276 277 278 279 280 281 281 282 284 285 284 285 286 287 289 290 291 292 293 294 294 293 293 293 293 292 292 291
262 261 260 260 261 261 261 263 264 265 267 269 271 272 274 276 277 277 278 280 281 281 281 281 281 283 284 286 287 289 291 291 292 293 294 295 294 294 294 294 294 294 294 294
261 261 262 262 262 263 263 264 266 267 268 269 271 273 275 277 277 278 279 280 280 280 280 279 280 282 285 287 289 291 292 293 293 295 295 296 296 295 296 296 297 297 296 295
264 262 263 264 265 266 266 267 269 269 270 270 272 274 275 276 277 278 279 280 280 279 278 278 280 282 285 287 289 290 292 294 295 296 297 297 296 296 296 297 296 296 296 296
265 265 267 267 265 265 267 268 268 269 270 272 273 275 276 276 278 279 279 279 279 278 278 279 280 282 284 286 288 289 291 293 295 296 296 296 296 296 297 298 298 297 297 297